User: anonymous   Login
Location: Norwich
(52.6280°N, 1.3030°E)
Time: 09:37:36
(UTC+01:00)
Language:

Meteor 1-22 Rocket - Orbit

View from above orbital plane
View from above orbital plane
View from above satellite
View from above satellite

Ground track
Ground track

The orbit data is extracted from the following two-line orbital elements,

1 08294U 75087B   14295.47123120  .00000171  00000-0  88463-4 0  1029
2 08294 081.2182 246.7248 0105508 253.9111 246.5907 14.08499497  8489
Epoch (UTC): 22 October 2014 11:18:34
Eccentricity: 0.0105508
inclination: 81.2182°
perigee height: 788 km
apogee height: 941 km
right ascension of ascending node: 246.7248°
argument of perigee: 253.9111°
revolutions per day: 14.08499497
mean anomaly at epoch: 246.5907°
orbit number at epoch: 848

The dashed part of the orbit path shows where the satellite is in the earth's shadow,  

DLR